カタログに戻る

JILIN-1 GAOFEN 07B 02 XING

運用中科学SSO
NORAD 68694·PAYLOAD·🇨🇳 China
この衛星名は、まだ公式ソースで確認されていません。

打ち上げ Apr 14, 2026 から Jiuquan Satellite Launch Center

Loading…

次のパス (今後24時間)

TLE

最新Source: Space-Track

元期: Sep 14, 2026, 12:39 UTC

1 68694U 26080D   26257.52741123  .00003274  00000-0  21158-3 0  9992
2 68694  97.6594 332.9848 0019539 117.4629 242.8589 15.08782508 23118

AllMySatでJILIN-1 GAOFEN 07B 02 XINGをリアルタイム追跡

Download on the App Store